Wind_Speed
49 47 45 45 45 45 46 46 46 47 44 42 41 38 35 32 32 34 35 31 29 28 27 26 27 27 25 23 22 20 18 16 14 13 10 7 7 10 12 11 10 8 12 14 14 14 15 17 19 21 24 25 28 29 28 27 27 25 23 22 20 19 18 18 17 17 17 16 16 16 16 16 16 16 16 16 15 15 15 15 16 16 16 16 16 16
50 49 49 50 49 48 47 47 47 47 44 43 43 41 37 34 35 37 38 36 33 31 28 27 28 29 26 24 23 21 20 18 15 13 11 8 8 11 13 11 9 8 13 18 17 16 17 17 19 21 23 24 27 28 27 27 27 25 23 22 20 19 18 18 17 17 16 16 15 15 15 15 14 14 14 14 13 13 13 13 13 14 14 14 14 15
51 53 54 53 51 49 48 47 48 48 46 45 45 44 40 37 39 40 41 41 38 34 32 29 30 30 28 27 24 22 21 20 17 14 11 9 9 13 14 12 11 11 16 22 20 18 18 18 20 21 22 23 25 26 26 26 27 25 24 22 21 19 18 18 17 16 16 15 14 14 13 13 13 13 12 12 11 11 11 11 11 11 12 12 12 13
56 58 56 53 52 51 50 49 49 50 49 48 48 46 44 43 44 43 44 45 42 37 35 32 32 33 31 29 26 23 23 22 18 15 13 10 10 14 15 14 13 14 19 23 22 20 20 20 21 21 21 23 25 26 26 26 28 26 24 23 21 20 18 18 17 16 15 15 14 13 13 12 12 11 11 11 10 9 9 9 9 9 9 10 10 11
59 59 55 54 54 53 53 52 51 52 51 52 51 49 49 49 47 46 47 47 43 39 38 36 35 35 33 31 28 25 24 24 21 17 15 13 11 12 15 15 15 16 18 22 23 22 22 22 21 22 21 23 26 27 26 26 27 27 25 23 22 20 19 18 17 16 15 14 13 13 12 11 11 10 10 9 9 8 7 7 7 7 7 7 8 8
60 58 56 55 55 55 55 53 53 54 54 55 53 51 52 52 49 48 49 47 45 45 44 39 35 36 36 34 30 27 26 26 24 19 17 16 13 12 13 16 19 20 20 22 24 24 24 24 22 23 23 24 27 28 26 25 26 26 25 24 22 21 20 18 17 16 15 14 13 12 12 11 10 10 9 8 7 6 5 5 5 5 5 6 6 7
58 57 56 55 55 55 54 53 54 55 55 55 54 53 52 51 49 49 49 46 47 50 46 39 35 37 38 36 32 30 30 28 25 22 19 18 16 13 14 18 21 23 22 22 25 26 25 25 23 23 24 26 28 29 27 26 26 27 26 24 23 21 20 19 18 17 15 14 13 12 11 10 10 9 8 7 6 5 4 4 4 4 4 4 5 5
58 57 56 55 55 54 53 54 55 55 54 53 53 52 51 50 49 49 50 47 49 51 47 39 37 38 39 38 36 35 32 29 27 24 21 19 18 16 16 18 21 25 24 23 26 28 27 26 25 24 25 27 29 29 28 27 27 28 27 25 24 22 21 20 18 17 16 15 14 13 11 10 9 8 7 6 5 5 4 4 4 3 3 4 5 5
60 58 57 57 55 53 53 54 53 52 50 51 51 49 48 48 48 49 49 47 49 51 45 39 38 40 42 41 41 38 34 31 30 27 23 20 19 18 17 19 22 26 27 27 29 30 28 28 27 26 26 28 30 30 29 28 28 28 27 26 24 23 22 21 20 19 17 16 15 13 12 10 9 7 6 6 5 5 5 4 4 4 3 4 4 4
60 57 58 56 51 50 52 51 48 47 48 49 48 46 47 48 47 48 47 47 49 47 40 39 41 43 45 45 43 39 37 35 33 30 26 23 22 20 20 22 24 27 29 30 30 29 30 30 29 29 28 30 33 33 31 29 29 29 29 27 26 24 23 22 21 20 19 17 15 13 12 10 9 7 6 6 5 5 5 4 4 4 3 3 3 3
59 57 57 52 47 50 51 47 45 46 48 48 46 46 47 47 46 46 45 48 48 42 37 40 44 46 46 46 44 42 42 40 35 32 28 26 25 23 21 23 25 26 28 28 28 28 31 32 31 32 32 32 34 35 33 31 30 30 30 29 27 26 25 24 23 21 19 17 15 13 11 9 8 7 6 6 5 4 4 3 3 2 2 2 2 3
59 57 54 50 49 52 50 46 45 47 49 48 46 46 45 43 42 42 44 45 43 41 42 46 50 50 48 49 49 47 46 43 37 34 31 29 27 25 23 25 26 25 25 26 27 28 31 34 34 35 34 33 36 37 36 34 32 32 31 30 29 28 27 26 24 22 19 17 15 13 11 10 9 8 7 6 5 5 4 3 2 2 2 2 2 2
60 57 54 53 53 53 49 46 47 48 48 46 45 44 41 38 38 39 41 41 41 44 49 53 54 50 50 55 54 49 48 45 40 37 34 31 30 27 26 27 26 24 24 24 25 28 32 35 36 36 35 35 38 39 38 35 33 32 31 30 30 29 28 27 25 22 20 17 16 14 12 12 11 10 9 8 7 7 6 5 5 4 3 3 3 3
63 59 55 54 54 52 49 47 47 48 47 45 44 43 39 37 38 38 39 41 43 46 49 51 49 46 53 59 53 48 50 48 43 40 36 33 32 30 28 28 27 25 24 24 25 27 31 34 36 37 36 36 39 40 38 35 33 31 30 30 30 30 30 28 26 24 21 19 18 16 15 15 14 13 12 11 10 9 8 8 8 7 5 5 5 5
64 58 53 54 54 54 51 49 50 50 48 46 45 43 39 37 38 38 39 41 43 45 45 43 42 46 56 57 51 50 53 51 45 41 38 36 33 31 29 28 26 26 24 23 25 28 30 32 34 37 37 37 40 41 39 36 33 31 30 30 31 31 30 28 26 24 23 21 20 20 18 18 17 16 16 14 13 12 11 11 10 9 8 8 8 8
64 58 56 59 59 57 54 52 53 52 49 47 45 41 37 37 37 37 38 40 40 40 39 38 41 49 54 52 50 51 53 51 46 42 39 37 34 31 30 28 26 27 25 22 25 28 29 30 34 37 38 38 40 41 40 37 35 33 32 31 31 31 30 28 26 25 24 23 23 23 21 20 20 19 19 17 16 15 15 14 13 12 11 11 11 11
64 61 61 62 60 57 54 54 53 51 49 47 43 40 38 37 36 36 37 37 36 36 38 40 44 47 47 47 50 52 53 51 46 42 40 38 37 34 31 30 28 27 27 26 28 29 28 30 33 37 38 39 42 44 43 41 38 35 33 31 31 30 29 28 28 27 26 26 26 24 24 23 22 22 21 20 19 19 18 16 15 15 15 14 14 14
66 65 63 61 61 58 56 56 55 52 50 45 42 41 38 35 34 34 34 33 33 35 39 43 44 43 42 46 50 51 52 51 46 43 42 40 39 36 33 33 31 30 30 29 28 27 27 29 33 36 38 40 44 46 46 44 41 38 34 31 30 29 28 28 27 27 27 27 27 26 25 24 24 23 22 22 22 21 20 19 18 18 17 18 18 17
66 67 66 63 63 62 60 59 56 51 49 45 42 41 36 32 33 32 31 32 33 36 41 43 41 38 41 48 50 51 51 50 48 45 42 41 40 37 35 35 34 33 32 30 27 27 28 30 32 35 37 40 43 46 46 44 41 38 35 32 30 28 27 26 26 27 28 28 28 27 26 25 24 24 24 23 24 24 23 22 21 20 20 20 20 20
68 69 69 66 65 66 64 60 54 50 49 47 44 41 36 34 35 33 33 33 34 37 41 41 38 37 43 46 46 48 50 51 51 48 44 43 42 40 39 37 35 34 34 33 30 28 28 29 31 34 35 38 42 44 43 41 40 37 35 32 30 28 26 25 26 27 28 28 28 27 26 26 25 24 25 25 26 25 24 23 23 23 22 22 22 22
71 71 73 68 65 68 64 56 52 51 51 49 46 43 40 39 37 35 35 33 32 34 38 39 35 32 38 43 42 44 48 51 53 51 48 46 45 43 41 39 36 35 35 35 33 30 28 28 29 30 32 35 38 40 39 38 37 36 34 32 30 28 27 27 27 27 27 26 26 26 27 27 26 26 27 28 27 26 25 24 24 24 24 25 24 24
74 73 76 70 65 66 63 57 56 55 54 52 50 47 45 44 42 39 36 33 32 32 36 40 34 25 28 38 42 43 46 49 53 53 50 48 47 45 43 41 39 37 36 35 34 33 30 27 27 28 29 32 35 37 37 36 35 34 33 32 30 29 29 29 28 28 27 26 25 26 27 27 28 29 30 29 28 27 26 25 25 26 26 26 25 25
77 75 77 72 65 66 66 63 61 59 57 56 53 50 49 47 45 42 40 37 36 37 39 41 34 27 29 35 39 41 43 47 51 53 52 51 49 47 46 45 42 39 37 35 34 34 32 29 28 27 28 31 34 36 36 35 34 34 33 31 30 30 30 29 28 27 26 26 27 27 27 28 29 30 31 31 30 28 27 27 27 27 27 27 27 27
81 76 77 73 67 68 71 67 63 61 58 57 54 51 50 48 46 45 43 41 40 41 42 39 34 32 32 32 34 38 41 44 49 52 54 53 52 51 50 47 43 41 39 36 34 34 34 32 30 28 28 30 32 34 35 35 35 35 33 31 31 31 31 29 28 27 27 28 28 28 28 29 30 31 31 31 30 28 28 28 28 28 28 28 29 29
81 76 77 77 71 70 72 68 63 59 55 54 54 52 51 50 49 47 45 42 41 42 42 41 37 34 32 32 34 37 39 42 46 51 54 55 54 54 51 47 45 44 42 39 36 35 35 34 32 31 30 31 33 34 36 36 36 35 34 33 33 33 32 31 30 30 30 30 29 29 30 31 32 32 31 30 29 29 29 29 29 29 30 30 31 31
80 77 77 77 72 69 70 68 63 59 55 55 56 55 53 52 51 49 46 43 42 42 42 42 41 37 34 35 36 36 38 40 43 48 52 55 56 55 51 49 49 47 44 42 40 38 37 35 35 35 34 34 35 36 38 39 38 37 36 36 36 35 34 34 33 33 33 32 31 31 33 33 33 33 31 30 29 30 30 30 30 31 31 32 32 33
84 82 79 78 75 72 73 72 66 62 60 58 57 57 56 53 52 51 48 45 45 44 43 44 44 41 38 38 38 37 38 39 42 46 50 54 56 55 53 53 52 50 48 46 44 42 40 38 37 38 39 39 38 39 41 42 42 41 40 39 39 38 38 37 37 36 36 34 33 34 35 35 34 33 32 31 31 32 32 32 32 32 33 34 34 34
88 86 81 80 80 76 74 73 67 62 61 61 60 60 58 55 54 52 49 48 48 47 46 46 47 44 41 40 39 38 37 38 40 43 47 52 55 56 56 56 54 53 51 49 46 44 42 41 41 41 41 42 42 42 44 45 45 45 44 43 42 41 40 40 39 39 38 36 36 37 37 36 34 33 32 32 33 34 34 34 34 34 35 35 36 37
89 87 83 84 84 79 75 73 68 64 64 64 62 61 60 57 55 53 51 51 51 50 49 49 48 46 44 43 41 38 38 38 38 39 42 48 53 57 58 59 57 56 54 51 48 46 44 44 44 44 43 43 44 45 45 46 47 47 46 45 43 42 41 41 40 40 40 39 38 39 38 36 34 34 33 33 35 35 35 35 36 36 37 37 38 38
88 88 88 87 85 80 75 73 72 68 66 65 63 62 62 59 57 55 54 54 54 53 53 52 49 49 48 45 42 39 38 37 36 36 39 43 49 54 58 59 59 58 56 53 50 49 47 47 47 47 46 45 45 45 46 47 47 47 47 45 43 43 43 42 42 42 42 41 41 40 38 37 36 35 35 35 36 37 37 37 37 37 38 38 38 39
91 93 91 87 83 79 73 72 74 72 69 68 68 65 63 61 58 57 56 56 56 55 55 54 52 51 51 48 44 40 38 36 36 36 37 39 43 49 55 58 59 58 57 54 52 51 50 49 49 50 49 48 47 46 46 46 47 47 47 46 45 45 44 43 43 43 43 43 41 40 39 38 38 37 37 37 38 38 38 38 38 38 38 38 39 39
93 93 88 83 82 79 74 74 75 74 72 73 71 67 64 63 61 59 59 59 58 56 56 56 54 53 54 51 46 42 40 38 37 37 36 36 38 44 50 55 58 58 58 57 55 55 54 53 53 52 51 50 49 48 47 47 46 46 46 46 45 44 44 43 43 42 42 42 41 41 40 40 39 39 40 40 40 40 40 39 39 40 40 40 40 40
92 88 84 84 83 81 80 78 78 79 77 74 70 67 66 66 63 61 61 61 59 58 58 59 59 57 56 54 49 45 43 41 39 39 37 36 36 38 45 51 56 58 58 58 58 57 56 55 54 53 52 51 50 50 50 49 49 49 48 46 45 44 44 44 43 43 43 42 42 43 43 42 41 42 43 43 43 43 42 42 43 43 43 43 43 44
90 86 85 86 84 84 84 81 81 82 78 72 71 70 69 67 65 63 63 62 61 59 59 61 62 60 58 56 52 47 45 43 40 39 38 36 35 36 40 46 52 56 57 58 58 58 57 56 55 54 53 52 51 51 51 51 52 51 50 49 48 48 47 47 46 46 46 46 46 47 46 45 44 45 45 45 45 45 45 45 46 46 46 46 46 46
91 89 88 86 86 88 87 82 82 81 76 74 76 75 72 70 68 65 65 65 64 62 61 62 62 60 59 58 53 48 46 45 42 40 38 36 35 36 37 41 46 52 56 58 59 58 58 58 57 56 55 54 53 53 52 52 52 52 51 51 50 50 50 49 48 48 49 49 49 49 48 47 47 47 47 47 47 47 47 48 48 49 49 49 48 49
93 92 90 88 89 91 88 83 82 80 78 79 80 76 73 72 69 67 66 66 65 64 62 62 62 62 60 58 55 51 49 46 43 40 38 36 36 37 38 40 42 47 51 55 58 59 59 59 59 58 58 57 56 55 55 54 53 53 52 52 51 51 51 51 50 51 51 50 50 50 50 49 49 49 49 49 49 50 50 51 52 52 52 51 52 52
94 93 92 90 91 91 87 84 83 82 81 82 81 77 75 73 71 70 68 68 67 65 63 62 62 62 60 58 56 53 50 46 43 42 41 41 40 40 39 40 41 43 46 50 53 56 58 59 59 59 59 59 58 58 58 57 56 55 55 54 54 54 53 53 53 53 53 53 52 52 52 52 52 52 52 52 53 54 55 55 55 54 54 54 55 55
94 94 93 93 93 92 88 86 86 85 84 84 83 81 78 76 74 72 70 70 70 67 65 63 62 61 61 59 56 54 51 48 47 47 47 44 42 40 39 39 40 41 43 45 47 50 53 55 56 57 58 58 58 58 59 58 58 58 57 57 57 56 56 56 56 56 56 55 55 54 54 55 55 54 54 55 55 56 56 55 55 54 54 54 53 53
95 95 95 95 94 92 89 87 87 86 86 87 86 84 80 79 77 74 73 74 73 70 67 65 63 63 63 60 56 55 53 51 51 51 47 43 41 40 39 39 39 40 41 43 44 45 47 48 50 52 53 54 55 55 56 56 57 57 57 57 57 57 57 57 57 56 56 55 54 54 54 53 53 52 51 51 51 51 51 50 50 50 49 49 48 48
96 97 97 96 95 93 90 89 88 89 89 89 88 86 84 82 79 77 77 77 75 72 70 67 65 63 62 60 59 58 56 54 52 49 46 43 43 43 42 42 42 41 41 42 42 42 42 42 42 44 45 46 47 48 49 49 50 50 51 51 51 51 52 51 51 51 51 50 49 49 49 48 46 46 45 45 45 45 45 45 45 45 45 44 44 43
96 97 97 97 96 94 92 90 90 91 91 90 88 88 86 83 80 80 80 78 76 74 72 69 66 64 63 63 62 60 58 56 53 50 48 48 46 45 44 44 43 43 43 43 43 41 39 38 38 37 38 38 39 40 41 42 42 43 43 43 43 44 44 44 44 44 44 44 43 43 43 43 42 42 42 42 42 42 42 42 42 42 42 41 41 41
94 96 96 97 98 96 94 92 92 92 93 91 90 90 88 86 84 84 83 80 78 77 74 71 68 66 65 65 63 61 59 58 57 55 53 51 48 46 45 44 43 44 44 44 43 41 39 38 37 36 35 35 36 37 37 38 38 39 39 40 40 40 40 40 40 40 40 40 40 40 40 40 40 40 40 40 40 40 40 40 41 41 41 41 41 41
92 94 95 97 98 98 96 95 94 94 96 94 92 91 91 90 88 86 83 81 80 79 76 73 70 69 67 66 64 62 61 60 60 58 55 54 53 50 47 44 43 43 44 44 43 42 40 39 38 37 37 36 36 37 37 37 38 38 38 39 39 38 38 38 38 39 39 39 39 39 39 39 38 39 39 38 38 38 39 39 39 40 41 41 41 41
92 94 95 97 99 100 99 98 96 96 96 94 92 91 91 90 88 86 84 82 81 79 76 74 73 71 70 67 65 63 62 62 62 60 58 58 57 55 52 48 46 45 45 44 44 43 43 42 41 40 39 38 38 38 38 38 38 38 39 39 38 37 37 38 38 38 39 39 39 38 38 38 39 39 39 39 39 39 40 40 40 40 41 41 42 42
94 94 95 97 99 100 100 99 97 95 94 94 93 92 91 89 88 87 86 83 82 81 80 77 75 74 72 69 67 66 64 63 62 62 61 61 60 59 57 54 51 49 48 47 47 46 46 45 45 45 43 42 42 41 41 41 41 40 40 40 40 39 39 39 40 40 41 41 41 41 41 41 42 42 42 42 42 42 43 43 43 42 42 43 43 43
93 93 94 95 97 97 97 97 95 93 93 93 92 90 89 90 90 89 87 85 84 84 83 80 77 76 75 72 70 68 66 65 64 63 63 63 62 61 60 59 55 52 51 50 50 49 48 48 48 48 47 46 45 45 45 44 44 44 44 43 43 43 43 43 43 44 44 45 45 45 45 46 46 46 46 46 46 46 46 46 46 46 45 45 45 45
93 92 92 93 94 94 96 96 95 93 92 90 89 89 89 91 92 90 88 87 86 85 85 83 80 78 77 75 74 72 70 68 66 65 64 64 63 63 63 62 60 56 53 53 53 52 51 51 50 50 50 50 49 48 47 47 47 47 47 47 47 47 47 47 47 48 48 48 49 49 50 50 50 50 51 51 50 50 49 49 49 49 48 48 47 47
94 91 90 91 91 91 93 94 93 91 89 88 89 91 92 93 93 91 90 88 87 87 86 85 82 80 79 78 77 75 73 71 69 68 67 66 65 66 65 65 63 60 58 57 56 55 53 53 53 53 53 53 52 51 51 51 51 50 50 50 51 51 51 51 51 51 52 52 52 52 53 53 53 54 54 54 53 52 52 52 52 52 51 51 51 50
93 90 88 88 88 88 90 91 91 90 89 89 91 93 95 94 93 93 92 91 89 88 87 86 85 83 81 80 79 78 76 75 73 71 70 68 68 67 67 67 67 64 62 60 59 58 57 56 55 55 55 55 55 54 54 54 55 54 54 54 54 54 54 55 54 55 55 55 55 55 55 56 56 56 56 56 55 54 55 55 56 55 54 54 55 55
93 90 88 87 87 87 88 90 92 91 92 92 93 95 95 93 91 92 93 93 91 89 88 87 86 85 84 83 82 81 79 78 77 75 73 71 70 70 70 70 69 68 67 65 63 61 60 59 59 58 57 57 57 57 57 57 57 58 58 58 57 57 57 58 58 58 58 58 58 58 58 58 58 58 58 57 56 56 57 58 58 58 58 58 58 58
94 91 89 87 86 85 87 90 91 91 92 93 93 92 92 91 91 92 93 93 92 91 89 88 87 86 86 86 85 84 83 82 81 79 77 75 74 73 72 72 72 72 71 69 67 66 64 63 62 61 61 60 60 59 60 60 60 60 60 60 60 60 60 60 60 60 60 60 60 61 60 60 60 60 60 60 59 59 60 60 60 61 61 61 61 62
Wind_Direction
249 249 248 245 244 244 246 247 248 251 252 253 253 252 249 248 250 254 255 252 251 252 252 256 259 261 263 265 268 272 274 276 280 287 298 300 274 255 251 242 224 226 244 240 220 207 205 203 197 187 184 187 186 184 181 174 172 172 172 174 175 175 173 171 170 167 164 162 160 156 151 147 143 139 136 132 127 121 116 110 105 101 97 94 90 86
249 248 246 245 245 246 247 248 250 252 252 252 252 251 249 248 250 253 254 252 249 248 248 250 254 257 258 260 263 266 268 270 273 277 286 289 264 248 246 240 222 216 237 241 225 206 203 200 194 186 186 191 191 187 182 175 173 174 174 175 176 176 176 174 174 171 169 167 165 162 157 152 148 145 141 136 132 125 119 113 108 104 101 97 93 88
247 246 246 247 248 248 248 249 251 252 251 251 251 251 248 246 247 248 250 249 246 244 243 245 250 253 254 255 256 260 263 264 266 268 272 273 252 242 241 234 217 214 236 242 228 205 197 192 191 189 189 193 193 191 185 177 175 176 176 177 177 178 177 176 176 175 173 172 170 167 162 158 154 150 146 141 136 130 125 118 112 108 104 100 95 90
247 247 248 249 249 249 249 249 250 251 251 250 249 249 248 245 244 245 247 248 245 242 241 241 245 249 250 252 252 254 258 259 259 259 261 262 249 242 243 237 222 222 237 243 231 208 193 188 190 191 191 191 192 194 191 181 178 178 178 179 179 179 179 178 178 178 177 176 174 171 167 164 161 156 151 146 142 137 132 125 118 113 108 103 97 92
249 249 249 250 250 249 249 249 249 251 251 250 248 247 247 245 244 244 245 248 248 245 242 238 240 245 248 249 249 249 253 255 253 252 254 255 246 239 245 245 236 229 235 243 239 216 193 186 190 191 193 192 190 195 196 188 182 181 180 181 181 180 180 180 180 179 179 178 177 176 172 169 166 163 157 152 149 146 140 132 124 118 112 106 98 91
249 250 249 249 249 249 249 249 249 250 250 250 249 247 247 247 247 245 245 247 248 245 242 237 237 243 246 246 246 245 247 250 250 248 247 249 246 233 230 236 237 232 228 236 240 226 200 187 189 192 193 193 191 194 197 192 186 184 184 184 183 183 182 181 181 181 181 181 180 178 175 172 170 167 163 160 157 155 147 136 125 118 112 105 97 87
251 251 250 250 249 249 249 249 249 249 249 250 250 248 248 248 247 246 246 245 247 246 244 239 237 241 244 245 246 243 242 244 246 246 243 245 247 238 225 226 233 231 223 227 237 233 210 191 189 193 194 194 193 194 196 193 189 189 188 187 186 185 184 182 184 185 184 184 183 182 180 175 172 168 165 162 158 153 145 131 116 108 103 96 90 80
251 250 249 248 248 248 248 247 247 247 248 249 249 248 248 247 245 244 243 242 244 246 245 240 237 240 243 244 243 240 239 241 243 244 242 241 244 241 230 225 230 231 224 224 232 233 219 197 190 194 196 196 195 195 197 195 192 192 191 190 189 187 186 186 186 188 189 189 188 186 183 179 175 168 161 154 145 136 125 115 107 98 87 79 72 66
249 249 248 247 247 248 247 247 247 248 248 248 248 248 247 245 242 241 240 239 242 245 244 240 237 238 240 240 240 240 238 238 238 238 238 238 240 242 236 227 227 229 225 223 225 230 225 207 192 193 197 197 196 196 199 198 195 195 194 193 192 191 190 190 190 193 195 195 194 191 188 185 179 170 161 150 141 131 124 118 110 101 91 80 71 63
250 250 250 250 249 250 248 248 248 248 247 246 246 245 243 242 240 238 238 237 239 241 242 240 235 234 236 238 239 240 238 235 233 233 234 235 235 237 237 233 229 226 224 222 220 225 228 217 199 193 197 199 196 196 198 199 197 197 197 196 195 195 195 195 196 197 200 201 200 198 196 193 187 179 172 163 154 144 136 130 121 114 110 101 92 80
250 250 251 251 249 248 247 246 245 244 243 243 241 241 240 240 239 238 236 235 236 235 235 235 231 229 232 234 235 237 237 233 230 228 230 232 231 229 231 236 236 229 225 222 219 221 228 224 207 196 197 199 197 196 197 199 199 199 199 198 197 198 200 201 202 202 205 207 207 207 207 205 203 197 194 188 179 170 161 150 143 135 130 130 124 115
249 249 250 250 246 245 244 242 241 241 241 240 240 240 240 239 239 237 236 235 233 229 226 227 226 222 224 229 229 231 234 232 227 226 227 229 229 227 227 234 238 233 226 222 218 220 225 224 214 201 197 197 197 197 198 199 200 200 201 200 200 201 204 206 207 208 210 212 214 216 219 224 224 222 220 216 209 205 199 196 196 195 193 185 170 161
245 245 244 244 243 243 243 241 241 241 242 241 241 241 240 239 238 235 233 232 229 228 227 229 229 222 221 226 224 225 232 231 226 223 224 226 227 226 228 232 236 233 228 221 216 219 223 223 217 206 198 196 197 199 201 200 200 201 202 203 203 205 208 210 210 212 214 218 221 224 228 233 236 238 239 238 235 232 230 233 236 235 233 235 221 213
241 240 240 242 243 244 243 241 241 242 242 242 241 240 238 235 234 232 230 229 227 229 230 233 234 228 224 226 222 222 229 229 225 221 221 224 226 225 227 231 232 231 227 221 215 216 220 222 218 208 199 197 197 198 201 202 201 202 204 206 208 210 213 213 212 214 217 220 225 229 232 238 242 245 247 247 247 248 249 250 251 252 253 255 251 247
241 240 240 241 242 241 240 238 239 240 240 240 240 239 236 234 233 232 230 229 228 230 232 234 236 231 228 227 222 221 228 228 224 221 220 223 226 225 226 229 229 228 226 223 218 216 217 220 218 209 201 198 198 198 199 201 202 203 205 207 211 214 216 216 216 218 220 223 228 231 233 237 242 247 250 251 252 255 257 257 258 262 264 266 268 268
243 242 239 239 238 238 238 237 237 239 240 240 240 240 236 233 233 233 232 231 231 233 234 233 232 231 231 229 223 223 229 229 224 222 221 223 225 225 225 226 227 226 222 220 222 219 215 216 215 210 203 199 198 198 198 199 201 204 206 207 211 215 217 219 221 222 224 227 230 232 234 236 239 244 249 253 255 256 257 260 264 268 269 269 272 275
240 240 238 239 240 240 241 241 240 240 240 240 241 240 236 232 231 232 233 234 234 235 235 232 230 230 230 229 225 223 228 229 225 223 222 223 224 224 223 224 225 225 219 216 218 217 214 214 214 211 205 200 198 198 197 199 201 204 206 208 212 215 218 220 223 225 226 229 233 235 236 237 238 241 246 251 254 256 258 261 264 268 271 272 272 274
236 237 237 237 238 238 237 238 238 238 239 240 241 240 236 233 232 233 235 236 236 236 235 233 231 229 229 228 224 221 225 228 226 223 223 222 223 223 223 223 222 223 222 218 216 214 212 213 214 212 207 202 200 200 199 199 200 202 204 208 212 216 218 221 223 226 228 231 234 237 238 239 240 241 244 249 253 256 259 261 262 264 267 271 273 275
236 237 237 235 235 236 235 235 235 236 237 237 238 237 234 232 231 231 232 232 232 233 234 234 232 228 227 228 225 220 221 224 224 223 223 224 223 223 224 224 222 223 223 219 215 212 211 212 214 214 210 205 204 204 203 202 201 201 202 205 210 214 218 222 225 228 230 233 236 240 243 244 244 244 245 248 251 254 257 260 263 264 267 269 272 274
234 235 236 234 233 235 235 235 236 235 235 234 233 232 229 227 226 225 226 227 229 235 238 237 233 227 226 229 227 222 219 220 221 220 220 222 222 222 224 225 223 224 224 220 215 212 211 211 213 215 212 208 207 208 208 207 205 204 203 204 208 212 216 221 225 228 232 236 240 243 246 247 248 247 247 248 251 254 257 259 263 266 268 270 270 272
231 231 234 233 230 234 236 236 235 233 232 232 229 227 224 222 221 219 222 226 228 234 239 237 232 228 228 229 227 224 221 219 219 218 217 219 220 220 222 223 223 224 225 223 218 214 212 212 212 215 214 212 212 213 213 212 212 210 209 208 209 210 213 217 221 225 230 234 238 242 245 247 247 247 247 249 251 255 258 261 263 266 268 269 270 271
230 229 232 232 228 231 234 232 230 229 228 228 225 222 220 217 215 213 215 219 219 222 233 235 229 223 226 226 224 223 221 219 219 218 217 217 218 219 220 222 222 224 226 224 221 218 215 213 213 214 214 214 215 216 217 218 218 217 216 215 214 214 216 218 221 224 227 231 235 239 242 244 245 245 246 247 250 253 256 259 261 263 265 267 270 271
230 227 231 232 226 226 229 228 226 226 224 224 223 220 218 216 214 212 212 213 214 216 228 235 230 226 227 225 223 223 220 218 218 218 218 218 218 219 219 220 220 222 224 224 222 220 217 214 213 212 213 213 215 217 219 220 221 221 221 221 221 221 223 225 227 230 232 234 237 239 241 244 244 244 245 246 248 250 252 254 256 258 261 265 268 271
228 226 229 231 225 223 226 227 226 225 223 223 223 220 217 216 214 214 214 214 216 221 231 238 235 231 231 226 224 224 222 219 218 217 217 218 218 219 219 218 219 221 223 223 222 222 220 217 213 213 214 214 215 217 220 221 222 222 224 224 225 227 229 232 234 236 238 239 241 243 244 245 244 244 244 244 246 248 250 252 253 256 259 263 266 269
230 228 228 230 226 222 225 228 227 226 224 222 222 220 217 215 214 215 215 215 218 225 233 240 239 234 234 230 225 224 222 220 218 217 217 217 218 219 219 217 218 220 220 220 221 221 221 219 216 214 215 215 216 218 220 221 223 224 225 226 228 230 233 236 238 240 241 242 244 246 246 246 246 245 244 244 245 246 248 250 253 255 259 262 264 266
230 229 228 230 228 223 225 228 226 225 223 220 220 220 217 214 214 215 214 212 216 221 228 236 239 235 233 233 229 225 222 220 218 217 217 217 217 219 219 218 219 219 218 218 218 218 218 218 216 216 215 215 215 217 220 222 223 225 226 228 230 232 234 237 239 240 241 242 244 246 247 248 247 247 246 245 245 246 247 249 252 255 258 261 263 266
226 225 224 226 227 222 221 225 223 220 220 217 217 218 217 214 213 214 212 209 212 217 221 229 234 233 231 231 230 226 224 221 219 218 217 216 217 217 218 219 220 220 219 217 217 216 215 215 216 216 216 215 215 216 219 221 222 224 226 228 230 232 234 236 238 240 241 241 243 245 247 247 247 248 247 247 247 248 249 250 253 256 258 261 264 266
224 224 222 222 224 221 219 223 223 219 218 217 215 216 216 214 212 212 211 209 210 213 216 222 229 231 230 230 230 228 227 224 221 219 218 217 216 216 217 218 219 220 220 218 217 217 216 216 216 217 217 218 217 217 218 220 221 222 224 226 229 231 233 236 238 241 243 243 243 246 247 248 249 250 250 250 251 251 253 255 257 258 261 263 265 267
224 224 222 220 222 220 217 220 222 218 217 217 214 214 214 213 210 209 209 209 208 210 213 218 224 229 229 229 229 229 229 228 223 219 218 218 217 216 216 217 218 219 219 218 218 217 217 218 219 218 218 219 220 220 222 223 224 224 225 226 228 231 234 236 239 243 245 246 246 247 248 250 252 253 254 254 254 255 257 258 260 262 264 267 268 270
223 223 222 221 221 220 216 216 218 217 216 216 215 213 213 211 208 207 208 208 207 207 210 215 220 226 229 229 228 227 228 230 227 221 218 218 218 217 218 218 218 219 219 219 219 219 218 219 221 220 220 220 221 222 224 227 228 229 230 231 231 234 236 238 240 243 245 247 247 248 250 251 253 254 255 255 256 257 258 260 262 264 266 268 270 271
221 221 221 220 221 221 218 215 216 216 214 214 214 212 211 211 208 207 208 208 207 206 209 213 217 222 227 228 226 225 226 227 227 224 218 217 217 217 218 219 220 220 219 219 220 221 221 221 221 221 221 222 223 224 225 228 231 233 235 236 236 237 239 240 241 242 244 246 248 249 250 251 253 255 255 256 257 258 259 260 262 264 266 268 270 271
222 222 221 220 220 220 218 215 215 215 214 213 212 210 209 210 209 208 208 209 208 206 209 213 215 220 226 227 224 222 223 224 225 224 220 217 215 215 217 219 220 221 220 219 219 221 221 221 222 222 222 223 225 226 227 229 231 233 234 236 237 239 241 242 244 245 246 248 249 250 251 252 253 255 256 256 258 259 260 261 262 264 265 267 269 270
223 222 220 219 219 218 217 213 213 214 214 212 210 209 209 209 209 209 208 209 208 207 209 212 215 218 222 225 223 221 221 222 223 224 222 217 215 215 215 217 219 220 221 220 221 222 223 224 224 224 224 225 226 228 229 230 231 233 234 236 237 239 241 242 244 246 248 249 251 251 252 253 253 255 257 258 260 262 263 264 265 266 267 267 268 269
223 222 220 219 217 217 217 213 212 213 212 211 210 210 209 209 209 209 208 208 208 208 210 213 215 218 221 224 224 221 221 223 223 224 224 219 214 213 214 216 217 219 220 221 222 223 224 225 226 226 226 227 228 229 230 231 232 234 236 237 238 239 241 242 244 246 248 249 251 252 254 255 256 257 259 261 263 265 267 268 269 269 269 269 270 271
220 220 220 218 217 217 217 214 212 212 210 210 211 209 207 208 209 208 207 208 208 207 210 214 216 218 221 223 224 222 220 222 222 223 224 222 216 214 213 213 215 217 218 220 222 222 223 225 226 227 228 229 229 230 231 232 233 235 236 238 239 240 242 243 245 246 248 250 252 254 256 257 258 260 262 263 265 266 267 268 268 269 269 271 272 273
218 218 218 217 216 217 216 213 213 211 209 210 211 208 206 207 208 208 208 208 208 208 210 213 216 218 220 222 223 222 219 219 220 221 224 222 218 215 213 212 213 215 216 218 220 222 223 224 226 227 229 230 231 232 233 234 235 236 237 239 240 242 243 244 246 247 249 251 253 255 257 258 259 260 262 263 264 265 265 266 267 268 270 272 273 273
217 217 217 216 216 217 215 212 212 211 209 210 210 208 206 207 208 208 207 207 208 208 210 213 215 218 220 220 221 222 221 219 217 218 219 218 216 215 214 213 213 214 215 217 219 221 222 224 225 227 228 230 232 233 234 236 237 238 240 241 242 244 245 247 248 249 251 252 254 256 257 259 260 261 262 263 264 265 265 267 268 270 271 272 273 273
217 217 217 216 216 216 215 212 211 211 210 209 209 208 206 206 207 207 207 207 208 208 210 212 214 216 219 219 219 220 220 217 214 215 215 215 216 217 217 216 216 216 216 218 219 220 222 224 226 227 229 230 232 234 236 238 239 240 242 243 245 246 248 249 250 252 253 255 256 257 259 260 261 263 264 265 266 267 268 269 270 270 271 271 272 274
216 216 216 216 216 216 215 211 210 210 210 209 208 207 206 206 206 206 207 207 208 208 209 211 213 215 218 219 218 218 219 216 214 214 214 214 216 217 217 218 219 218 219 220 221 222 223 224 226 228 230 231 233 235 237 239 241 242 244 245 247 249 250 251 252 254 255 256 257 258 259 260 261 263 264 265 267 268 269 269 270 270 271 272 273 274
214 214 215 215 215 215 215 212 209 210 211 210 208 206 206 206 205 206 208 207 206 208 209 210 212 215 217 219 218 217 217 217 215 214 213 213 213 213 213 215 217 219 220 222 224 226 227 228 229 230 231 233 234 236 237 239 241 242 244 245 246 248 249 251 252 253 254 255 256 257 258 259 260 261 262 263 264 266 267 268 269 270 271 273 274 276
213 213 213 214 214 215 215 213 210 209 211 210 208 206 206 205 205 207 209 207 205 207 209 209 211 214 216 218 218 217 217 218 216 212 210 211 211 211 213 215 217 219 221 223 227 229 230 232 233 234 235 236 237 238 238 239 241 242 243 244 244 245 246 248 249 250 251 252 253 255 256 257 258 258 258 259 260 262 264 266 268 270 271 273 275 276
212 212 213 213 213 214 214 213 211 209 210 210 208 206 205 205 206 208 208 206 205 207 209 209 210 213 215 217 219 218 217 218 218 214 210 211 211 212 213 215 217 219 221 224 227 230 232 233 234 235 236 237 238 239 240 240 241 242 242 243 243 244 244 245 246 248 249 250 252 253 254 255 256 257 257 258 260 262 264 267 269 271 272 273 274 275
213 213 212 212 213 213 214 214 212 210 209 209 208 206 205 205 206 207 207 206 205 206 208 209 210 212 215 217 218 219 218 218 219 217 213 212 212 211 211 214 216 219 221 224 227 229 232 234 235 235 236 236 237 239 240 242 242 243 243 243 244 244 245 247 248 250 250 251 252 253 255 257 258 259 261 262 263 265 266 268 270 271 273 274 275 275
212 212 212 212 212 212 213 213 212 211 209 208 208 207 206 205 207 208 208 207 206 206 207 209 210 212 215 216 218 219 219 219 220 219 218 217 215 213 211 213 217 220 222 224 227 229 231 233 235 237 237 237 238 239 241 242 244 243 243 244 245 246 248 250 251 253 254 255 255 256 257 259 261 262 264 265 266 267 268 270 271 272 274 276 277 279
212 212 211 212 212 212 212 213 213 211 210 208 208 208 206 205 207 209 208 207 207 207 207 209 211 212 214 216 218 220 220 220 221 221 221 221 220 217 214 214 217 221 224 226 229 230 232 234 236 238 239 240 241 242 243 243 243 242 242 243 244 246 248 251 253 254 256 257 258 259 260 261 263 264 265 266 267 268 269 271 272 273 275 277 279 281
212 212 212 212 212 212 212 213 213 212 211 209 208 208 206 206 208 209 209 208 208 208 208 209 210 212 214 216 218 220 221 221 221 221 223 224 224 223 221 219 219 221 224 227 229 231 233 236 237 239 240 241 242 244 244 245 245 244 243 244 246 248 250 252 254 256 257 259 260 262 263 264 265 265 266 266 267 268 269 271 273 274 275 276 279 281
212 212 212 212 213 212 212 213 213 212 212 209 208 208 208 208 208 209 210 209 209 209 209 209 210 212 214 216 218 220 222 223 223 223 223 224 225 226 226 225 224 224 226 229 231 232 233 236 238 240 242 243 243 244 245 246 246 246 247 248 249 252 254 255 257 258 259 261 262 263 265 266 266 267 268 268 268 269 271 273 274 274 275 277 278 279
212 212 212 212 213 213 213 214 213 213 212 210 209 209 210 209 208 209 210 211 210 210 210 210 210 212 214 217 219 221 222 224 225 225 225 225 226 228 229 230 229 228 229 232 234 234 235 237 239 241 242 244 245 245 246 247 247 248 249 250 252 253 255 257 259 260 261 262 263 264 265 266 267 268 269 270 271 273 274 275 275 276 277 278 279 279
212 212 212 213 213 213 213 214 214 213 212 212 211 210 210 209 208 209 210 211 211 210 210 211 211 212 214 216 219 221 223 225 226 227 227 227 227 229 231 232 232 232 232 234 236 237 238 239 240 242 243 244 246 246 247 248 249 250 251 252 253 255 256 258 259 261 262 263 264 266 266 267 268 269 270 272 273 275 275 275 276 277 278 279 279 280
211 212 212 213 213 213 213 214 214 213 212 213 212 211 210 209 209 209 211 212 212 212 211 212 212 212 213 216 218 220 223 225 226 227 229 229 230 230 232 233 234 234 234 235 237 239 240 241 242 243 244 246 247 247 248 249 249 251 252 253 254 255 257 258 260 261 262 264 265 267 268 269 270 271 272 273 274 274 275 276 276 277 278 278 280 280
211 211 212 212 212 212 213 214 215 214 213 213 213 213 211 210 210 211 211 212 213 213 213 213 214 214 215 216 218 220 222 225 227 228 229 230 231 232 233 234 235 236 236 236 237 239 241 242 244 245 246 247 248 249 250 250 251 252 253 254 255 256 257 259 260 261 263 264 266 267 269 270 271 272 273 274 274 274 275 276 277 278 279 279 280 281
Height
10929 10932 10934 10934 10934 10936 10936 10937 10937 10938 10943 10945 10947 10950 10953 10955 10956 10954 10955 10958 10960 10962 10963 10963 10962 10961 10962 10963 10963 10963 10963 10963 10963 10963 10963 10963 10964 10965 10966 10966 10965 10966 10969 10969 10968 10968 10968 10968 10969 10970 10971 10973 10975 10976 10978 10979 10980 10982 10984 10986 10988 10990 10991 10992 10993 10994 10995 10996 10996 10996 10996 10996 10996 10996 10996 10996 10996 10996 10996 10996 10996 10996 10996 10996 10996 10996
10925 10925 10925 10926 10929 10931 10933 10934 10934 10935 10939 10941 10942 10945 10949 10951 10951 10950 10950 10952 10956 10959 10960 10961 10960 10959 10960 10961 10962 10962 10961 10962 10962 10963 10962 10962 10963 10964 10965 10966 10965 10967 10970 10970 10969 10968 10968 10968 10970 10971 10972 10974 10976 10977 10978 10979 10981 10983 10984 10986 10988 10990 10991 10993 10994 10995 10995 10996 10997 10997 10997 10997 10997 10997 10997 10997 10997 10997 10997 10997 10997 10997 10997 10997 10997 10997
10917 10915 10916 10921 10925 10927 10929 10930 10930 10931 10933 10936 10938 10940 10944 10946 10945 10945 10946 10946 10951 10954 10957 10959 10958 10957 10958 10959 10960 10960 10960 10961 10961 10961 10962 10962 10963 10963 10965 10966 10965 10967 10971 10971 10969 10968 10967 10968 10970 10971 10972 10974 10977 10978 10979 10980 10981 10982 10984 10986 10988 10990 10991 10993 10994 10995 10996 10997 10997 10998 10998 10998 10998 10998 10998 10998 10998 10998 10998 10998 10998 10998 10998 10998 10998 10999
10908 10907 10912 10918 10920 10922 10924 10925 10925 10925 10928 10930 10932 10935 10937 10939 10940 10941 10941 10940 10945 10950 10952 10955 10955 10955 10956 10956 10958 10959 10958 10959 10960 10960 10961 10961 10962 10962 10963 10966 10966 10968 10972 10972 10970 10967 10966 10968 10969 10971 10972 10974 10976 10978 10979 10980 10980 10982 10984 10986 10988 10990 10991 10993 10994 10996 10996 10997 10998 10998 10998 10999 10999 10999 10999 10999 10999 10999 10999 10999 10999 10999 10999 11000 11000 11000
10899 10902 10910 10913 10914 10915 10916 10919 10920 10920 10921 10922 10925 10929 10930 10932 10936 10937 10936 10936 10941 10945 10947 10950 10952 10952 10953 10954 10956 10957 10957 10957 10958 10959 10960 10960 10961 10961 10963 10964 10964 10966 10969 10970 10969 10968 10966 10966 10969 10970 10972 10973 10975 10978 10980 10980 10981 10982 10984 10986 10987 10989 10991 10993 10994 10995 10996 10997 10998 10999 10999 10999 11000 11000 11000 11000 11000 11000 11000 11000 11000 11000 11000 11001 11001 11001
10893 10898 10903 10905 10906 10908 10910 10912 10914 10913 10914 10915 10919 10924 10924 10927 10932 10933 10933 10935 10936 10937 10940 10946 10949 10949 10950 10951 10953 10955 10955 10955 10957 10957 10958 10959 10960 10961 10963 10964 10963 10964 10967 10969 10969 10967 10965 10965 10967 10969 10971 10972 10974 10976 10979 10981 10982 10983 10984 10986 10987 10989 10991 10992 10994 10995 10996 10997 10998 10999 10999 11000 11000 11000 11001 11001 11001 11001 11001 11001 11001 11001 11001 11002 11002 11002
10888 10892 10895 10898 10899 10901 10904 10906 10906 10907 10908 10910 10913 10917 10919 10923 10928 10928 10929 10933 10931 10930 10935 10942 10946 10946 10946 10948 10950 10951 10951 10952 10954 10955 10956 10957 10958 10960 10962 10963 10964 10964 10964 10966 10967 10967 10966 10964 10965 10968 10970 10972 10973 10975 10978 10980 10981 10983 10984 10985 10987 10989 10990 10992 10993 10994 10996 10997 10998 10998 10999 11000 11000 11001 11002 11002 11002 11002 11002 11002 11002 11002 11002 11002 11003 11002
10879 10882 10887 10890 10891 10894 10898 10898 10898 10901 10903 10905 10906 10911 10915 10918 10921 10922 10923 10928 10925 10923 10931 10939 10942 10942 10942 10944 10944 10945 10948 10950 10952 10953 10954 10956 10956 10958 10960 10962 10965 10964 10962 10964 10966 10966 10965 10963 10963 10966 10969 10971 10973 10975 10977 10978 10980 10981 10983 10985 10986 10988 10990 10991 10992 10994 10995 10996 10997 10998 10999 11000 11001 11001 11002 11002 11003 11003 11003 11003 11003 11003 11003 11003 11003 11003
10868 10874 10879 10881 10886 10889 10890 10890 10893 10898 10899 10899 10902 10907 10910 10911 10914 10915 10917 10922 10920 10919 10927 10934 10936 10937 10937 10937 10938 10941 10944 10947 10948 10950 10951 10953 10954 10955 10958 10961 10964 10963 10961 10963 10964 10964 10964 10963 10962 10964 10967 10969 10971 10973 10975 10977 10979 10980 10983 10984 10986 10987 10989 10990 10992 10993 10994 10995 10997 10998 10999 11000 11001 11001 11002 11003 11003 11003 11003 11003 11003 11003 11003 11003 11004 11004
10863 10870 10871 10875 10884 10884 10882 10885 10891 10894 10893 10893 10897 10901 10902 10903 10906 10908 10912 10915 10914 10918 10924 10927 10928 10930 10929 10931 10934 10938 10940 10941 10944 10947 10949 10951 10952 10953 10955 10958 10960 10960 10960 10960 10961 10961 10962 10961 10960 10961 10964 10966 10969 10971 10973 10975 10977 10979 10981 10983 10985 10986 10988 10989 10990 10992 10993 10995 10996 10997 10998 10999 11000 11001 11002 11003 11003 11003 11004 11004 11004 11004 11004 11004 11004 11004
10860 10863 10864 10872 10878 10875 10875 10882 10886 10886 10885 10887 10892 10894 10895 10898 10901 10903 10907 10907 10910 10917 10917 10915 10918 10921 10923 10926 10931 10933 10933 10935 10940 10943 10946 10948 10949 10950 10952 10955 10956 10956 10956 10956 10957 10957 10959 10959 10959 10958 10960 10963 10966 10969 10971 10973 10975 10977 10979 10981 10984 10986 10987 10988 10990 10991 10993 10994 10996 10997 10998 10999 11000 11001 11002 11002 11003 11003 11004 11004 11004 11004 11004 11004 11004 11004
10852 10856 10860 10866 10867 10866 10870 10876 10879 10878 10879 10882 10886 10887 10890 10894 10896 10899 10901 10902 10908 10910 10904 10902 10906 10913 10918 10919 10922 10925 10926 10929 10936 10940 10943 10945 10947 10947 10949 10952 10953 10952 10952 10952 10953 10954 10955 10957 10956 10956 10957 10960 10964 10966 10968 10970 10972 10975 10977 10980 10982 10984 10985 10987 10989 10991 10992 10994 10995 10997 10998 10998 10999 11000 11001 11002 11002 11003 11004 11004 11004 11004 11004 11004 11004 11004
10843 10849 10853 10856 10857 10859 10866 10870 10872 10872 10874 10878 10881 10883 10887 10890 10891 10893 10895 10898 10901 10898 10894 10894 10901 10911 10913 10907 10912 10921 10921 10926 10932 10936 10939 10941 10944 10945 10948 10950 10950 10949 10949 10949 10949 10950 10952 10953 10954 10954 10956 10958 10961 10964 10966 10969 10971 10973 10976 10978 10980 10982 10984 10986 10988 10990 10992 10993 10994 10996 10997 10998 10999 11000 11000 11001 11002 11002 11003 11004 11004 11004 11004 11004 11004 11004
10833 10840 10845 10850 10852 10855 10861 10865 10866 10867 10869 10873 10876 10878 10883 10885 10885 10887 10889 10891 10892 10890 10890 10893 10902 10910 10904 10899 10911 10919 10916 10920 10927 10932 10935 10938 10940 10943 10945 10947 10946 10946 10946 10946 10946 10947 10948 10951 10952 10953 10954 10956 10958 10961 10965 10968 10970 10972 10975 10977 10979 10981 10983 10985 10987 10989 10990 10992 10993 10994 10996 10997 10998 10999 10999 11000 11001 11001 11002 11003 11003 11003 11004 11004 11004 11004
10826 10836 10845 10846 10845 10848 10853 10857 10858 10859 10863 10867 10870 10873 10878 10880 10880 10882 10883 10885 10886 10886 10890 10895 10901 10901 10894 10897 10911 10914 10911 10916 10924 10928 10932 10934 10937 10940 10942 10942 10942 10943 10944 10944 10945 10945 10946 10948 10951 10952 10953 10954 10956 10959 10963 10966 10968 10971 10973 10975 10977 10979 10981 10983 10986 10988 10989 10991 10992 10993 10994 10996 10997 10997 10998 10999 11000 11000 11001 11002 11002 11003 11003 11003 11003 11003
10822 10833 10837 10834 10834 10839 10845 10849 10850 10854 10859 10862 10865 10870 10874 10875 10875 10877 10879 10880 10882 10885 10888 10892 10891 10888 10889 10898 10907 10908 10909 10914 10921 10926 10929 10931 10934 10936 10938 10939 10938 10939 10942 10944 10944 10943 10944 10946 10948 10949 10950 10952 10955 10957 10960 10963 10965 10968 10970 10972 10975 10977 10980 10982 10984 10986 10988 10989 10990 10991 10993 10994 10995 10996 10997 10998 10998 10999 11000 11000 11001 11002 11002 11002 11002 11003
10815 10822 10825 10825 10829 10835 10840 10843 10845 10850 10854 10857 10862 10866 10868 10869 10871 10874 10875 10876 10879 10881 10882 10882 10880 10882 10888 10895 10900 10904 10906 10910 10917 10922 10925 10928 10930 10933 10935 10936 10936 10937 10939 10942 10942 10941 10942 10944 10946 10947 10949 10950 10952 10954 10956 10958 10961 10965 10968 10971 10973 10975 10978 10980 10982 10984 10986 10987 10988 10990 10991 10993 10994 10995 10995 10996 10997 10997 10998 10999 11000 11000 11000 11001 11001 11001
10807 10811 10815 10820 10823 10828 10833 10834 10838 10844 10848 10854 10859 10860 10862 10867 10870 10872 10872 10874 10876 10875 10873 10872 10875 10882 10887 10889 10892 10898 10901 10906 10914 10918 10922 10925 10927 10930 10932 10933 10934 10935 10937 10939 10939 10940 10941 10942 10943 10945 10947 10949 10950 10950 10952 10954 10957 10961 10965 10969 10971 10973 10976 10978 10980 10982 10984 10985 10986 10987 10989 10990 10992 10993 10994 10994 10995 10995 10996 10997 10998 10998 10999 10999 10999 10999
10802 10803 10807 10814 10815 10818 10823 10825 10832 10841 10845 10851 10854 10855 10860 10866 10867 10868 10869 10870 10869 10867 10865 10867 10873 10881 10882 10881 10885 10891 10897 10902 10908 10913 10918 10922 10924 10927 10929 10930 10932 10934 10935 10937 10937 10938 10938 10939 10941 10943 10945 10947 10948 10950 10951 10953 10956 10959 10962 10965 10968 10971 10974 10976 10978 10979 10981 10982 10983 10985 10986 10988 10989 10990 10992 10992 10993 10993 10994 10995 10996 10996 10997 10997 10997 10997
10794 10794 10796 10805 10808 10807 10812 10820 10830 10839 10841 10845 10849 10852 10858 10862 10862 10864 10864 10863 10863 10862 10861 10865 10871 10876 10876 10876 10882 10889 10893 10897 10902 10907 10912 10916 10919 10923 10924 10926 10929 10932 10933 10934 10935 10936 10936 10937 10939 10941 10944 10946 10948 10949 10951 10954 10956 10958 10960 10963 10966 10969 10971 10973 10975 10976 10978 10979 10981 10983 10984 10985 10986 10988 10989 10989 10990 10991 10992 10993 10993 10994 10994 10994 10994 10995
10783 10786 10785 10795 10801 10799 10808 10822 10830 10833 10835 10839 10844 10848 10853 10856 10858 10860 10859 10859 10861 10859 10858 10861 10868 10872 10873 10875 10880 10885 10888 10892 10896 10901 10906 10910 10914 10917 10920 10922 10926 10928 10930 10931 10933 10934 10934 10936 10938 10940 10943 10946 10948 10950 10953 10955 10956 10958 10960 10962 10964 10966 10968 10970 10971 10973 10975 10977 10978 10980 10981 10982 10983 10984 10985 10986 10987 10988 10990 10990 10991 10991 10991 10991 10992 10992
10773 10777 10774 10785 10796 10797 10806 10817 10820 10823 10828 10832 10837 10841 10845 10849 10852 10854 10855 10856 10856 10855 10853 10856 10864 10869 10869 10871 10875 10878 10883 10888 10892 10897 10901 10905 10908 10912 10915 10919 10922 10924 10926 10928 10931 10933 10934 10936 10937 10939 10942 10945 10948 10950 10952 10954 10956 10957 10959 10960 10962 10964 10965 10966 10968 10970 10972 10974 10975 10976 10978 10979 10980 10981 10981 10983 10984 10986 10987 10988 10988 10988 10988 10988 10989 10989
10761 10768 10766 10777 10791 10793 10796 10803 10808 10814 10820 10823 10829 10835 10839 10843 10847 10850 10851 10851 10851 10850 10849 10853 10861 10864 10865 10867 10870 10874 10878 10883 10887 10892 10896 10899 10903 10906 10909 10913 10917 10920 10923 10926 10928 10931 10933 10934 10936 10938 10940 10942 10945 10948 10950 10953 10954 10955 10957 10959 10961 10962 10963 10964 10966 10968 10970 10971 10972 10973 10975 10975 10976 10977 10978 10979 10981 10982 10984 10985 10985 10985 10985 10985 10986 10986
10748 10760 10762 10769 10783 10785 10784 10792 10800 10806 10813 10818 10824 10830 10835 10840 10844 10846 10846 10847 10847 10846 10847 10852 10857 10859 10861 10864 10867 10870 10874 10878 10881 10886 10889 10893 10897 10900 10902 10907 10913 10916 10919 10922 10925 10928 10930 10932 10934 10936 10938 10940 10943 10946 10948 10950 10951 10953 10955 10957 10958 10959 10960 10963 10964 10966 10968 10968 10969 10971 10972 10972 10972 10973 10974 10975 10977 10979 10980 10981 10981 10981 10982 10982 10982 10983
10743 10756 10756 10758 10770 10776 10777 10785 10795 10802 10810 10817 10820 10825 10831 10835 10839 10841 10843 10845 10846 10845 10846 10848 10851 10855 10858 10861 10863 10865 10869 10872 10876 10880 10883 10887 10890 10893 10898 10904 10909 10911 10914 10918 10921 10924 10926 10929 10932 10934 10936 10938 10940 10943 10945 10946 10948 10950 10952 10954 10955 10956 10958 10961 10962 10964 10965 10966 10967 10968 10968 10968 10969 10970 10971 10973 10974 10975 10976 10977 10977 10978 10978 10978 10979 10979
10739 10748 10749 10751 10763 10773 10775 10781 10791 10799 10806 10812 10815 10820 10825 10829 10833 10837 10840 10843 10844 10843 10844 10844 10847 10852 10855 10855 10857 10861 10864 10867 10870 10874 10877 10881 10885 10889 10896 10900 10902 10905 10909 10913 10915 10918 10921 10925 10928 10930 10931 10933 10936 10939 10941 10942 10944 10946 10948 10950 10952 10953 10955 10957 10959 10960 10961 10962 10964 10964 10964 10965 10966 10967 10968 10970 10972 10972 10973 10973 10974 10975 10975 10975 10975 10975
10726 10733 10740 10747 10755 10763 10766 10770 10781 10790 10796 10804 10809 10813 10818 10824 10828 10832 10836 10840 10840 10840 10841 10840 10842 10847 10850 10851 10853 10856 10859 10862 10865 10868 10871 10875 10880 10886 10891 10894 10896 10900 10904 10907 10910 10913 10916 10920 10922 10924 10926 10928 10931 10934 10935 10937 10939 10942 10944 10945 10947 10949 10951 10953 10954 10955 10956 10958 10960 10960 10960 10961 10962 10964 10966 10968 10969 10969 10969 10970 10971 10972 10972 10972 10972 10972
10712 10719 10732 10739 10741 10750 10758 10765 10775 10785 10791 10796 10801 10805 10811 10817 10822 10827 10833 10835 10835 10835 10837 10836 10837 10842 10845 10847 10849 10852 10855 10857 10860 10863 10866 10871 10876 10881 10884 10886 10890 10894 10897 10901 10906 10909 10913 10915 10917 10919 10921 10924 10926 10928 10930 10931 10933 10936 10937 10939 10942 10945 10946 10948 10950 10951 10952 10955 10956 10956 10956 10958 10960 10962 10964 10965 10965 10965 10966 10967 10968 10968 10969 10969 10969 10969
10704 10713 10724 10726 10728 10740 10753 10761 10771 10779 10783 10787 10794 10800 10805 10810 10816 10822 10826 10828 10829 10831 10832 10831 10834 10837 10840 10842 10845 10848 10851 10853 10856 10860 10864 10867 10870 10874 10877 10879 10883 10887 10891 10896 10901 10904 10908 10910 10912 10914 10917 10919 10922 10923 10925 10927 10929 10931 10933 10935 10938 10940 10942 10944 10946 10947 10949 10951 10952 10952 10953 10956 10958 10959 10961 10961 10961 10962 10963 10964 10964 10965 10965 10966 10966 10966
10699 10704 10708 10713 10720 10732 10745 10754 10762 10769 10775 10781 10788 10794 10798 10804 10811 10815 10818 10821 10823 10825 10826 10827 10830 10832 10835 10838 10841 10845 10848 10850 10853 10857 10859 10862 10865 10869 10872 10875 10878 10882 10887 10892 10896 10899 10903 10905 10907 10910 10912 10914 10917 10919 10922 10924 10925 10928 10930 10933 10935 10937 10938 10940 10942 10943 10944 10945 10946 10948 10950 10952 10954 10955 10956 10957 10957 10958 10959 10960 10960 10961 10961 10962 10962 10962
10687 10687 10695 10708 10718 10728 10741 10750 10754 10760 10768 10773 10778 10785 10792 10798 10804 10809 10813 10815 10817 10821 10822 10823 10826 10828 10829 10833 10837 10842 10845 10846 10848 10851 10855 10858 10861 10864 10868 10871 10875 10879 10884 10890 10893 10895 10898 10899 10901 10904 10907 10910 10912 10915 10917 10919 10921 10924 10926 10929 10931 10932 10934 10936 10937 10939 10940 10941 10942 10944 10946 10948 10949 10950 10951 10952 10952 10953 10954 10955 10956 10957 10957 10957 10957 10958
10672 10678 10696 10710 10716 10724 10736 10742 10747 10754 10759 10762 10769 10779 10787 10792 10797 10802 10806 10809 10813 10818 10818 10820 10823 10823 10823 10828 10834 10838 10841 10842 10844 10846 10850 10853 10856 10860 10863 10866 10870 10875 10879 10884 10887 10888 10890 10893 10896 10899 10902 10906 10908 10911 10913 10915 10917 10919 10921 10923 10926 10928 10930 10931 10932 10934 10935 10937 10939 10940 10941 10943 10945 10946 10946 10947 10948 10948 10950 10951 10951 10952 10952 10953 10953 10953
10663 10678 10695 10702 10707 10716 10723 10730 10738 10743 10747 10756 10767 10775 10780 10785 10790 10795 10800 10804 10809 10812 10813 10814 10816 10815 10817 10824 10830 10834 10836 10838 10840 10843 10846 10850 10853 10856 10859 10861 10865 10869 10873 10878 10881 10883 10885 10889 10892 10895 10899 10901 10904 10906 10908 10910 10912 10914 10916 10919 10922 10923 10925 10926 10928 10929 10931 10933 10934 10935 10936 10939 10940 10941 10941 10942 10943 10944 10945 10946 10946 10947 10947 10948 10948 10948
10660 10676 10684 10690 10700 10706 10710 10720 10727 10730 10742 10756 10763 10767 10772 10778 10783 10789 10794 10799 10803 10807 10808 10808 10809 10810 10813 10819 10825 10830 10832 10835 10838 10841 10843 10847 10850 10852 10854 10857 10860 10864 10867 10872 10875 10878 10882 10885 10888 10891 10894 10897 10899 10901 10903 10905 10907 10909 10912 10915 10917 10918 10919 10921 10923 10925 10926 10928 10928 10929 10931 10933 10935 10936 10936 10938 10938 10939 10940 10941 10941 10941 10941 10942 10943 10943
10654 10664 10671 10682 10692 10694 10699 10712 10719 10726 10742 10750 10749 10754 10764 10770 10775 10781 10787 10791 10795 10800 10801 10802 10806 10808 10809 10815 10822 10826 10828 10832 10835 10838 10840 10843 10846 10848 10850 10853 10855 10858 10861 10864 10868 10871 10875 10878 10881 10884 10888 10890 10893 10895 10898 10900 10902 10905 10908 10910 10912 10913 10915 10917 10919 10920 10921 10922 10923 10924 10926 10928 10930 10931 10932 10933 10934 10934 10935 10934 10934 10934 10935 10936 10937 10937
10643 10651 10660 10673 10679 10681 10691 10705 10713 10723 10734 10736 10739 10750 10758 10764 10770 10776 10781 10786 10791 10794 10796 10798 10801 10802 10803 10811 10818 10820 10823 10828 10832 10835 10838 10840 10842 10843 10845 10848 10850 10853 10856 10858 10861 10865 10867 10871 10874 10878 10881 10884 10887 10890 10893 10895 10898 10900 10903 10905 10907 10909 10911 10912 10914 10915 10916 10918 10919 10920 10922 10924 10925 10926 10927 10927 10928 10928 10928 10928 10928 10929 10930 10931 10931 10931
10632 10641 10652 10662 10667 10673 10685 10699 10706 10714 10723 10728 10735 10744 10751 10758 10764 10769 10775 10781 10785 10789 10791 10793 10796 10798 10801 10806 10812 10816 10820 10825 10829 10832 10832 10834 10836 10838 10841 10844 10846 10849 10851 10854 10856 10859 10862 10865 10868 10872 10875 10878 10882 10885 10887 10891 10894 10896 10898 10901 10903 10904 10906 10908 10909 10910 10912 10913 10914 10916 10917 10918 10919 10920 10921 10922 10922 10921 10921 10922 10923 10925 10925 10925 10925 10924
10624 10634 10643 10651 10658 10666 10677 10689 10696 10704 10714 10721 10727 10735 10743 10750 10755 10761 10769 10774 10777 10782 10785 10788 10791 10794 10795 10800 10807 10813 10817 10821 10823 10824 10825 10829 10833 10836 10839 10842 10844 10847 10849 10851 10853 10855 10858 10861 10864 10867 10871 10874 10877 10880 10882 10886 10889 10891 10894 10896 10898 10900 10902 10903 10904 10905 10906 10908 10910 10911 10912 10912 10913 10914 10915 10915 10915 10915 10915 10916 10917 10918 10918 10918 10918 10917
10614 10624 10632 10640 10648 10657 10668 10679 10689 10697 10705 10710 10717 10727 10736 10741 10747 10756 10760 10763 10769 10775 10780 10783 10786 10787 10789 10795 10803 10808 10811 10814 10816 10817 10823 10830 10833 10835 10838 10840 10842 10844 10846 10848 10850 10852 10855 10858 10861 10864 10867 10869 10872 10875 10878 10881 10884 10886 10889 10891 10893 10894 10896 10897 10899 10900 10901 10902 10904 10904 10905 10906 10907 10908 10909 10909 10908 10908 10909 10909 10910 10910 10911 10911 10911 10911
10603 10612 10621 10631 10641 10650 10659 10670 10680 10687 10692 10698 10708 10718 10725 10731 10741 10748 10749 10754 10764 10770 10773 10777 10779 10782 10787 10792 10796 10800 10804 10808 10811 10816 10824 10828 10829 10831 10833 10835 10837 10840 10842 10844 10847 10849 10852 10855 10858 10861 10863 10865 10868 10870 10873 10876 10878 10881 10883 10885 10887 10889 10890 10891 10893 10894 10895 10896 10897 10897 10898 10900 10901 10902 10903 10903 10903 10903 10903 10903 10903 10903 10904 10905 10905 10906
10592 10601 10612 10623 10633 10642 10650 10660 10670 10676 10682 10691 10702 10710 10717 10727 10735 10737 10740 10749 10759 10764 10767 10772 10776 10779 10782 10784 10788 10794 10800 10804 10808 10814 10818 10820 10822 10827 10829 10831 10834 10837 10839 10841 10843 10846 10849 10852 10855 10858 10860 10862 10865 10867 10869 10871 10873 10876 10877 10879 10881 10882 10884 10885 10887 10888 10889 10890 10891 10892 10892 10894 10895 10896 10897 10897 10897 10897 10897 10897 10898 10898 10899 10899 10900 10900
10585 10595 10605 10615 10623 10632 10641 10649 10658 10667 10674 10682 10692 10701 10711 10719 10723 10725 10732 10743 10752 10756 10761 10767 10771 10773 10775 10778 10782 10789 10796 10799 10802 10807 10812 10816 10819 10823 10824 10827 10830 10832 10835 10837 10839 10842 10845 10848 10851 10854 10856 10859 10861 10863 10865 10867 10869 10871 10872 10874 10875 10877 10879 10880 10881 10882 10883 10884 10885 10886 10887 10888 10889 10890 10891 10891 10892 10892 10892 10892 10893 10893 10894 10894 10895 10895
10580 10589 10598 10607 10615 10624 10631 10638 10647 10656 10661 10669 10681 10692 10700 10707 10712 10719 10729 10738 10744 10750 10757 10763 10767 10769 10770 10773 10778 10784 10790 10794 10797 10802 10808 10812 10814 10817 10820 10824 10826 10829 10832 10834 10837 10839 10842 10844 10847 10849 10852 10854 10857 10858 10861 10862 10864 10866 10868 10869 10870 10872 10873 10875 10876 10877 10878 10879 10880 10881 10882 10882 10883 10884 10885 10886 10886 10887 10887 10888 10888 10888 10888 10889 10889 10889
10570 10579 10588 10597 10604 10612 10619 10626 10635 10643 10652 10664 10677 10685 10693 10703 10712 10718 10726 10733 10740 10748 10755 10759 10762 10764 10767 10770 10774 10779 10784 10788 10792 10798 10803 10806 10808 10812 10816 10820 10822 10825 10828 10830 10833 10836 10838 10840 10842 10845 10847 10850 10852 10854 10856 10858 10860 10862 10863 10864 10866 10867 10869 10870 10871 10872 10873 10873 10875 10876 10877 10877 10878 10878 10879 10880 10881 10881 10881 10882 10883 10883 10883 10883 10883 10883
10558 10567 10577 10586 10593 10600 10609 10617 10626 10637 10648 10659 10668 10676 10688 10701 10707 10711 10719 10728 10735 10742 10747 10752 10756 10760 10763 10766 10770 10774 10778 10783 10788 10793 10797 10800 10803 10808 10812 10816 10819 10821 10824 10826 10829 10831 10834 10836 10838 10840 10843 10845 10847 10850 10851 10853 10855 10857 10858 10859 10861 10862 10864 10865 10866 10867 10867 10868 10869 10870 10871 10872 10873 10873 10874 10874 10875 10876 10876 10877 10877 10878 10878 10877 10877 10877
10553 10561 10571 10579 10586 10596 10606 10614 10624 10634 10643 10652 10663 10675 10686 10694 10698 10703 10712 10720 10726 10731 10738 10745 10750 10754 10758 10762 10765 10768 10773 10778 10783 10787 10791 10795 10799 10803 10806 10810 10813 10817 10819 10822 10824 10827 10829 10831 10833 10836 10838 10840 10843 10845 10846 10848 10850 10851 10853 10854 10856 10857 10859 10860 10861 10862 10862 10863 10864 10865 10866 10866 10867 10868 10868 10869 10870 10870 10871 10871 10872 10872 10872 10872 10872 10872
10547 10555 10565 10574 10582 10592 10601 10608 10616 10626 10636 10648 10662 10672 10679 10685 10690 10698 10707 10714 10720 10726 10733 10739 10745 10749 10753 10757 10760 10763 10767 10772 10777 10782 10786 10790 10794 10796 10799 10803 10808 10812 10815 10817 10818 10821 10824 10827 10828 10831 10833 10835 10837 10839 10841 10843 10844 10846 10848 10849 10851 10852 10853 10854 10855 10856 10857 10858 10858 10859 10860 10860 10861 10861 10862 10862 10864 10865 10865 10866 10866 10865 10866 10866 10866 10866
10541 10550 10560 10570 10578 10588 10597 10604 10612 10623 10634 10646 10656 10663 10667 10673 10682 10692 10701 10707 10714 10720 10726 10733 10739 10744 10748 10752 10755 10758 10762 10766 10770 10775 10779 10784 10787 10790 10793 10796 10801 10805 10808 10810 10813 10816 10819 10821 10823 10825 10827 10829 10831 10834 10836 10837 10839 10840 10842 10844 10845 10847 10847 10848 10849 10850 10851 10851 10852 10853 10854 10854 10854 10855 10855 10856 10857 10859 10860 10859 10859 10859 10860 10860 10860 10859
10537 10548 10559 10568 10575 10585 10594 10601 10609 10620 10630 10639 10646 10650 10654 10662 10674 10685 10692 10697 10704 10712 10719 10726 10732 10737 10742 10746 10749 10753 10756 10759 10763 10768 10772 10777 10781 10784 10787 10789 10793 10797 10801 10804 10807 10810 10813 10815 10817 10819 10821 10823 10825 10828 10830 10832 10833 10835 10836 10838 10839 10841 10841 10842 10843 10843 10844 10845 10846 10846 10847 10848 10848 10848 10849 10850 10852 10853 10853 10852 10852 10852 10853 10853 10852 10852
10533 10545 10554 10562 10570 10580 10589 10595 10601 10610 10619 10626 10631 10637 10645 10658 10672 10680 10684 10691 10699 10706 10713 10718 10724 10730 10735 10738 10742 10746 10749 10752 10756 10760 10765 10769 10773 10777 10779 10782 10785 10789 10792 10796 10799 10803 10806 10808 10811 10813 10815 10817 10819 10822 10824 10825 10827 10828 10830 10831 10833 10834 10835 10835 10836 10837 10837 10838 10839 10839 10840 10841 10841 10841 10842 10844 10846 10846 10845 10845 10845 10845 10845 10845 10845 10845
10528 10538 10546 10554 10564 10574 10582 10587 10594 10602 10610 10618 10626 10635 10647 10660 10668 10672 10678 10685 10692 10699 10705 10711 10717 10723 10727 10730 10734 10739 10742 10744 10747 10752 10757 10761 10765 10768 10771 10774 10777 10780 10784 10788 10792 10795 10798 10801 10803 10806 10808 10811 10813 10815 10817 10818 10820 10821 10823 10824 10826 10827 10828 10829 10829 10830 10830 10831 10831 10832 10833 10833 10834 10834 10835 10836 10838 10838 10838 10838 10837 10837 10837 10837 10837 10837